Location: Kailua
(21.4020°N, 157.7390°W)
Time: 19:30:58
(UTC-10:00)

Cosmos 2221 Rocket - Visible Passes

Search period start: 21 August 2017 00:00
Search period end: 31 August 2017 00:00
Orbit: 621 x 648 km, 82.5° (Epoch: 21 August)

Date Brightness Start Highest point End Pass type
(mag) Time Alt. Az. Time Alt. Az. Time Alt. Az.
21 Aug 6.5 05:38:47 10° SE 05:42:02 20° E 05:45:18 10° NE visible
24 Aug 6.6 05:07:57 10° SE 05:10:37 16° E 05:13:17 10° NE visible
25 Aug 5.2 05:28:33 10° SSE 05:32:38 38° E 05:36:45 10° NNE visible
26 Aug 3.6 05:50:21 10° S 05:54:45 80° W 05:59:12 10° N visible
27 Aug 6.8 04:37:27 10° ESE 04:39:11 12° E 04:40:55 10° ENE visible
28 Aug 5.6 04:57:21 10° SSE 05:01:11 30° E 05:05:03 10° NNE visible
29 Aug 3.7 05:18:53 10° S 05:23:17 78° E 05:27:43 10° N visible
30 Aug 4.0 05:41:19 10° SSW 05:45:28 40° W 05:49:40 10° NNW visible
